Simultaneous Nadir Overpasses (SNOs) Predictions

Prediction of SNOs between GOES-16 and TERRA Satellite Orbit:

Table of predicted SNOs for the next 14.0 days since TLE Epoch: 2/23/2019
Index Date Time (GOES-16) GOES-16 Lat,Lon TERRA Lat,Lon Distance(km) Time Diff (sec)
1 02/24/2019 15:30:08 0.02, -75.21 0.03, -75.25 4.05 80
2 02/26/2019 15:20:36 0.02, -75.23 -0.58, -72.29 333.47 80
3 02/27/2019 03:42:00 -0.02, -75.21 -0.47, -77.49 258.23 80
4 03/01/2019 03:27:08 -0.01, -75.23 0.15, -74.53 79.81 80
5 03/03/2019 03:14:57 -0.00, -75.26 0.78, -71.57 418.59 80
6 03/03/2019 15:36:11 0.00, -75.28 0.34, -76.73 165.36 80
7 03/05/2019 15:26:39 0.00, -75.31 -0.30, -73.77 174.52 80
8 03/06/2019 03:48:03 -0.00, -75.30 -0.80, -78.96 416.35 80
9 03/08/2019 03:35:51 0.00, -75.34 -0.15, -76.01 75.66 80




NCC Satellite Simultaneous Nadir Overpasses (SNOs) Prediction Service
